[[{"header":{"parameterUnit":"m.s-1","parameterCategory":2,"la1":30.2991,"la2":30.254,"lo1":-89.0895,"lo2":-89.0444,"dy":0.0017,"dx":0.0017,"nx":28,"ny":28,"refTime":"2025-01-31T09:00:00:Z","depth":"0","parameterNumber":2,"parameterNumberName":"U-component_of_CURRENTS"},"data":[0,0,0,0,0,0,0,0,0,0,0,0,0,0,0,0,0,0,0,0,0,0,0,0,0,0,0,0,0,0,0,0,0,0,0,0,0,0,0,0,0,0,0,0,0,0,0,0,0,0,0,0,0,0,0,0,0,0,0.1497,0.1497,0,0.1543,0.1544,0.1545,0.1567,0.1567,0.1567,0.1567,0.1611,0.1613,0.1614,0,0,0,0,0,0,0,0,0,0,0,0,0,0.151,0.1509,0.1496,0.1497,0.1497,0.1543,0.1544,0.1545,0.1567,0.1567,0.1567,0.1567,0.1611,0.1613,0.1614,0,0,0,0,0,0,0,0,0,0,0,0,0,0.1527,0.1509,0.1496,0.1513,0.1514,0.1543,0.1544,0.1545,0.1567,0.1567,0.1567,0.1566,0.161,0.1612,0.1614,0.1633,0,0,0.1621,0.1622,0,0,0,0,0,0,0,0,0.1525,0.1526,0.151,0.1512,0.1514,0.1548,0.1565,0.1574,0.1567,0.1549,0.1567,0.1566,0.1589,0.1593,0.1605,0.1635,0.1637,0.1621,0.1622,0.1623,0.1624,0,0,0,0,0,0,0,0.1524,0.1525,0.1517,0.151,0.1513,0.1546,0.1548,0.1568,0.1571,0.1551,0.1552,0.1554,0.159,0.1603,0.1606,0.1637,0.1621,0.1623,0.1624,0.1625,0.1721,0.1723,0,0,0,0,0,0,0.1511,0.1523,0.1515,0.1518,0.1517,0.1546,0.1548,0.1538,0.1571,0.1575,0.1555,0.1555,0.1599,0.1603,0.1607,0.1664,0.1623,0.1625,0.1626,0.172,0.1722,0.1723,0,0,0,0,0,0,0.151,0.1509,0.1513,0.1521,0.1524,0.1545,0.1535,0.1539,0.1552,0.1574,0.1578,0.1563,0.1599,0.1605,0.1642,0.1664,0.1626,0.1628,0.1719,0.1721,0.1722,0.1755,0,0,0,0,0,0,0.151,0.1508,0.1504,0.152,0.1523,0.154,0.1535,0.1541,0.1553,0.1555,0.1582,0.1586,0.1599,0.1639,0.1644,0.1666,0.1629,0.1717,0.1719,0.1722,0.1752,0.1758,0.1763,0,0,0,0,0,0.1511,0.1509,0.1503,0.1502,0.1513,0.1541,0.1547,0.1562,0.1554,0.157,0.1592,0.1585,0.1658,0.1642,0.1648,0.1671,0.1716,0.1719,0.1722,0.175,0.1757,0.1763,0,0,0,0,0,0,0.1526,0.1511,0.1505,0.1501,0.1521,0.1544,0.1561,0.1562,0.1591,0.1593,0.1604,0.1611,0.1649,0.1658,0.1639,0.1707,0.1685,0.1689,0.1705,0.1711,0.1717,0.1726,0.1631,0,0,0,0,0,0.1521,0.151,0.1514,0.1518,0.1524,0.1539,0.1552,0.1562,0.1585,0.1597,0.1614,0.1638,0.1667,0.1686,0.1709,0.1749,0.1775,0.1768,0.1773,0.1777,0.179,0.1831,0.1841,0.1733,0.1733,0.1733,0,0,0.153,0.1521,0.1517,0.152,0.1535,0.1566,0.1548,0.1573,0.1604,0.1598,0.1646,0.1653,0.168,0.1726,0.1744,0.1737,0.1829,0.1781,0.1785,0.1795,0.1835,0.1846,0.1855,0.1735,0.1735,0.1734,0,0,0.1558,0.1534,0.1541,0.1557,0.1574,0.1587,0.1591,0.1613,0.1628,0.1669,0.1673,0.1697,0.174,0.1767,0.1785,0.1834,0.1849,0.1836,0.188,0.1919,0.1929,0.1937,0.2014,0.2029,0.1846,0.1846,0.1847,0,0.1569,0.1577,0.1556,0.158,0.1601,0.1596,0.1634,0.1653,0.1687,0.1707,0.1692,0.1756,0.1765,0.1829,0.1845,0.1846,0.1883,0.1851,0.1926,0.1935,0.1942,0.2019,0.2035,0.1848,0.1848,0.1848,0.1848,0,0.1611,0.1623,0.1636,0.1655,0.1678,0.1709,0.1728,0.1751,0.1756,0.1774,0.1821,0.1834,0.1875,0.1876,0.1876,0.1939,0.1954,0.192,0.1908,0.1955,0.2034,0.205,0.1851,0.185,0.185,0.1849,0,0,0.1623,0.1654,0.1662,0.1685,0.1719,0.1743,0.1793,0.1837,0.1871,0.1889,0.1943,0.1969,0.1961,0.1981,0.1978,0.2007,0.2092,0.1991,0.1992,0.2066,0.2218,0.2249,0.2269,0.2068,0.207,0.2072,0.2262,0,0.1667,0.1716,0.1727,0.1794,0.1824,0.184,0.1888,0.1925,0.1948,0.1998,0.2006,0.2053,0.2008,0.203,0.2051,0.2075,0.2131,0.2047,0.2164,0.2169,0.2186,0.2287,0.2236,0.2402,0.2278,0.228,0.2282,0,0.1713,0.1735,0.1797,0.1854,0.1869,0.191,0.1976,0.2018,0.2076,0.2097,0.2134,0.2145,0.2203,0.2145,0.2232,0.218,0.2214,0.2227,0.2234,0.2261,0.2228,0.2329,0.2436,0.2385,0.2307,0.2305,0.2303,0,0.1728,0.1792,0.1838,0.1858,0.1917,0.1951,0.1987,0.2046,0.2094,0.2165,0.2218,0.226,0.2305,0.2333,0.2368,0.2309,0.2471,0.2392,0.2466,0.247,0.245,0.2448,0.2516,0.2477,0.2476,0.2476,0.2475,0,0.1765,0.1808,0.1845,0.1866,0.193,0.1966,0.2043,0.2079,0.2158,0.2225,0.2267,0.2336,0.2349,0.2436,0.2439,0.2531,0.2541,0.2514,0.2527,0.2464,0.2461,0.2432,0.2385,0.2483,0.2481,0.248,0.2479,0,0.1785,0.1808,0.1862,0.1915,0.1936,0.198,0.2072,0.2119,0.2201,0.2296,0.2333,0.2427,0.2533,0.2587,0.266,0.2645,0.2658,0.2744,0.2694,0.2696,0.2667,0.2623,0.2628,0.2538,0.2847,0.2849,0.285,0,0.1803,0.1826,0.1882,0.1906,0.1931,0.2,0.2039,0.2123,0.2175,0.2344,0.2386,0.2543,0.2626,0.2791,0.2812,0.2898,0.2772,0.2892,0.2751,0.2704,0.2665,0.2525,0.2435,0.2757,0.2758,0.2759,0.2759,0,0.1825,0.1841,0.1866,0.1913,0.1952,0.2007,0.207,0.2126,0.2228,0.232,0.2432,0.2527,0.2718,0.2774,0.2923,0.2945,0.2765,0.2906,0.2859,0.2623,0.2473,0.2379,0.2618,0.2765,0.2764,0.2764,0.2763,0.2763,0.1833,0.1848,0.187,0.1916,0.1955,0.1991,0.2012,0.2084,0.2165,0.2268,0.2392,0.2502,0.2691,0.2877,0.2895,0.2924,0.2824,0.2839,0.2806,0.268,0.2535,0.2816,0.296,0.296,0.2961,0.2961,0.2962,0,0.183,0.1838,0.1874,0.1902,0.192,0.1956,0.2006,0.2003,0.205,0.2188,0.2271,0.2478,0.2626,0.2766,0.2903,0.2833,0.2658,0.2768,0.2541,0.2464,0.2743,0.2678,0.2765,0.2765,0.2765,0.2765,0.2765,0.2766,0.1822,0.1833,0.1842,0.1851,0.1868,0.1842,0.1848,0.185,0.1919,0.2014,0.2121,0.225,0.2571,0.2839,0.2865,0.2784,0.2529,0.2468,0.2397,0.2595,0.2597,0.2598,0.2527,0.2581,0.258,0.2017,0.2014,0.2011]},{"header":{"parameterUnit":"m.s-1","parameterCategory":2,"la1":30.2991,"la2":30.254,"lo1":-89.0895,"lo2":-89.0444,"dy":0.0017,"dx":0.0017,"nx":28,"ny":28,"refTime":"2025-01-31T09:00:00:Z","depth":"0","parameterNumber":3,"parameterNumberName":"V-component_of_CURRENTS"},"data":[0,0,0,0,0,0,0,0,0,0,0,0,0,0,0,0,0,0,0,0,0,0,0,0,0,0,0,0,0,0,0,0,0,0,0,0,0,0,0,0,0,0,0,0,0,0,0,0,0,0,0,0,0,0,0,0,0,0,-0.1037,-0.1038,0,-0.1153,-0.1154,-0.1156,-0.1241,-0.1241,-0.1242,-0.1242,-0.1347,-0.1349,-0.1351,0,0,0,0,0,0,0,0,0,0,0,0,0,-0.1067,-0.1065,-0.1037,-0.1038,-0.1039,-0.1153,-0.1155,-0.1156,-0.1241,-0.1241,-0.1242,-0.1242,-0.1346,-0.1349,-0.1351,0,0,0,0,0,0,0,0,0,0,0,0,0,-0.1108,-0.1064,-0.1037,-0.1093,-0.1098,-0.1152,-0.1155,-0.1157,-0.1241,-0.1241,-0.1242,-0.1242,-0.1345,-0.1348,-0.1352,-0.1362,0,0,-0.1363,-0.1364,0,0,0,0,0,0,0,0,-0.1105,-0.1107,-0.1083,-0.1089,-0.1095,-0.118,-0.1203,-0.1224,-0.124,-0.119,-0.1242,-0.1243,-0.1287,-0.1295,-0.1321,-0.1367,-0.1371,-0.1363,-0.1365,-0.1367,-0.1368,0,0,0,0,0,0,0,-0.1102,-0.1104,-0.1086,-0.1084,-0.1092,-0.1172,-0.1178,-0.1209,-0.1236,-0.1195,-0.12,-0.1207,-0.1291,-0.1317,-0.1324,-0.1373,-0.1363,-0.1366,-0.1368,-0.137,-0.1449,-0.1449,0,0,0,0,0,0,-0.107,-0.1099,-0.1083,-0.109,-0.1098,-0.117,-0.1177,-0.1155,-0.1236,-0.1248,-0.1207,-0.1211,-0.1311,-0.132,-0.1328,-0.1357,-0.1367,-0.137,-0.1372,-0.1449,-0.1449,-0.1449,0,0,0,0,0,0,-0.107,-0.1066,-0.1078,-0.1097,-0.1104,-0.1167,-0.1144,-0.1157,-0.1182,-0.1245,-0.1258,-0.1218,-0.1312,-0.1323,-0.1356,-0.1361,-0.1372,-0.1375,-0.1449,-0.1449,-0.1449,-0.1408,0,0,0,0,0,0,-0.107,-0.1065,-0.1043,-0.1093,-0.1101,-0.1105,-0.1143,-0.1159,-0.1184,-0.1191,-0.1258,-0.1269,-0.1313,-0.135,-0.1359,-0.1367,-0.1378,-0.1449,-0.1449,-0.1449,-0.1409,-0.1406,-0.1404,0,0,0,0,0,-0.107,-0.1042,-0.104,-0.1039,-0.1065,-0.1104,-0.1116,-0.1169,-0.1184,-0.1194,-0.1238,-0.1267,-0.1356,-0.1353,-0.1364,-0.1372,-0.1449,-0.1449,-0.1449,-0.141,-0.1407,-0.1404,0,0,0,0,0,0,-0.1072,-0.1049,-0.1049,-0.1021,-0.1053,-0.1117,-0.1133,-0.1159,-0.1204,-0.1209,-0.1266,-0.128,-0.1311,-0.1342,-0.1337,-0.1394,-0.1407,-0.1409,-0.1374,-0.1371,-0.1369,-0.1337,-0.1381,0,0,0,0,0,-0.1049,-0.1001,-0.1026,-0.1006,-0.1018,-0.107,-0.1092,-0.1121,-0.1165,-0.1187,-0.1231,-0.1277,-0.1319,-0.1344,-0.1381,-0.141,-0.1404,-0.1423,-0.142,-0.1417,-0.1398,-0.1398,-0.1393,-0.1448,-0.1448,-0.1448,0,0,-0.1046,-0.1026,-0.1003,-0.1,-0.1031,-0.1045,-0.1086,-0.1112,-0.1127,-0.1188,-0.1221,-0.1264,-0.1322,-0.1359,-0.1376,-0.1388,-0.1395,-0.1417,-0.1415,-0.1397,-0.1397,-0.1392,-0.1387,-0.1448,-0.1448,-0.1448,0,0,-0.1025,-0.0998,-0.096,-0.0975,-0.0996,-0.1027,-0.1026,-0.1078,-0.1106,-0.1136,-0.1186,-0.1227,-0.1288,-0.1336,-0.1367,-0.1367,-0.1376,-0.1383,-0.1352,-0.1352,-0.1347,-0.1343,-0.131,-0.1303,-0.1388,-0.1388,-0.1388,0,-0.1022,-0.097,-0.0968,-0.0955,-0.0963,-0.101,-0.1008,-0.1045,-0.11,-0.111,-0.1137,-0.1217,-0.1277,-0.1318,-0.1333,-0.1361,-0.1346,-0.1362,-0.1347,-0.1343,-0.1339,-0.1306,-0.1299,-0.1386,-0.1386,-0.1386,-0.1387,0,-0.0982,-0.095,-0.0942,-0.0916,-0.0933,-0.0938,-0.0979,-0.0996,-0.1027,-0.1059,-0.1094,-0.1171,-0.1214,-0.1252,-0.1302,-0.1312,-0.1302,-0.1337,-0.135,-0.133,-0.1297,-0.129,-0.1383,-0.1384,-0.1384,-0.1385,0,0,-0.0942,-0.091,-0.0905,-0.0885,-0.0906,-0.0911,-0.093,-0.0952,-0.0939,-0.1007,-0.0993,-0.1104,-0.1132,-0.1167,-0.1232,-0.1254,-0.1233,-0.1284,-0.1285,-0.124,-0.1196,-0.1135,-0.1121,-0.1261,-0.126,-0.126,-0.1177,0,-0.0911,-0.0854,-0.0859,-0.0832,-0.0813,-0.0851,-0.0856,-0.0881,-0.0905,-0.0903,-0.0984,-0.0998,-0.1104,-0.1112,-0.1157,-0.1208,-0.1214,-0.1249,-0.1231,-0.1229,-0.117,-0.1112,-0.1095,-0.1015,-0.1171,-0.117,-0.1169,0,-0.0855,-0.0826,-0.0774,-0.0752,-0.075,-0.0745,-0.0731,-0.0741,-0.0763,-0.0777,-0.0814,-0.0861,-0.0918,-0.0994,-0.1068,-0.108,-0.1128,-0.117,-0.1169,-0.1117,-0.1155,-0.1066,-0.0997,-0.1154,-0.1158,-0.1159,-0.116,0,-0.0779,-0.0759,-0.0701,-0.0696,-0.069,-0.0677,-0.068,-0.0693,-0.0662,-0.0677,-0.0631,-0.0729,-0.0728,-0.0827,-0.0937,-0.0993,-0.0977,-0.1067,-0.1048,-0.1043,-0.1026,-0.1021,-0.1097,-0.1086,-0.1086,-0.1086,-0.1086,0,-0.0698,-0.0661,-0.0656,-0.062,-0.0563,-0.0596,-0.0527,-0.0543,-0.0516,-0.0431,-0.0548,-0.0486,-0.0683,-0.071,-0.0848,-0.0897,-0.0906,-0.1006,-0.1011,-0.1009,-0.1003,-0.1139,-0.1246,-0.1083,-0.1084,-0.1084,-0.1085,0,-0.0589,-0.0585,-0.0526,-0.0517,-0.0508,-0.0461,-0.0409,-0.0347,-0.0348,-0.0228,-0.0213,-0.0273,-0.0308,-0.0471,-0.0597,-0.0737,-0.0888,-0.0835,-0.0798,-0.08,-0.0958,-0.1062,-0.1102,-0.1159,-0.0809,-0.0806,-0.0805,0,-0.0522,-0.0474,-0.0428,-0.0375,-0.0359,-0.0303,-0.0243,-0.0251,-0.0167,-0.0076,0.0011,0.0004,0.0034,-0.0126,-0.0375,-0.0551,-0.0748,-0.0659,-0.0784,-0.0925,-0.1047,-0.1136,-0.1189,-0.0743,-0.0741,-0.0739,-0.0738,0,-0.041,-0.0386,-0.0328,-0.0214,-0.0144,-0.006,0.0021,0.0111,0.0151,0.0254,0.0395,0.0428,0.0275,0.0101,-0.0158,-0.0329,-0.0766,-0.0626,-0.0799,-0.1003,-0.1077,-0.1147,-0.0824,-0.0722,-0.0724,-0.0725,-0.0726,-0.0726,-0.0331,-0.0251,-0.0157,-0.0044,0.0046,0.0191,0.0288,0.0392,0.0546,0.0713,0.07,0.0785,0.0481,0.0122,-0.0119,-0.0572,-0.0618,-0.0748,-0.0857,-0.0928,-0.1003,-0.0611,-0.0506,-0.0506,-0.0507,-0.0507,-0.0507,0,-0.0203,-0.0109,0.0007,0.0151,0.0293,0.0304,0.0478,0.0587,0.0791,0.0929,0.104,0.096,0.0591,0.0161,-0.0429,-0.0758,-0.0941,-0.0961,-0.1133,-0.1176,-0.0844,-0.0865,-0.0799,-0.0799,-0.0799,-0.0799,-0.0798,-0.0798,-0.013,0.0035,0.0109,0.0353,0.0455,0.0639,0.075,0.0904,0.1026,0.1217,0.1275,0.1277,0.0959,-0.014,-0.089,-0.1076,-0.1358,-0.1387,-0.1516,-0.1364,-0.1355,-0.1347,-0.1393,-0.1439,-0.144,-0.1818,-0.1822,-0.1826]}],[{"header":{"parameterUnit":"m.s-1","parameterCategory":2,"la1":30.2991,"la2":30.254,"lo1":-89.0895,"lo2":-89.0444,"dy":0.0017,"dx":0.0017,"nx":28,"ny":28,"refTime":"2025-01-31T09:00:00:Z","depth":"2","parameterNumber":2,"parameterNumberName":"U-component_of_CURRENTS"},"data":[0,0,0,0,0,0,0,0,0,0,0,0,0,0,0,0,0,0,0,0,0,0,0,0,0,0,0,0,0,0,0,0,0,0,0,0,0,0,0,0,0,0,0,0,0,0,0,0,0,0,0,0,0,0,0,0,0,0,0.144,0.144,0,0.1502,0.1503,0.1503,0.1498,0.1498,0.1497,0.1496,0.1502,0.1503,0.1504,0,0,0,0,0,0,0,0,0,0,0,0,0,0.1341,0.1343,0.1439,0.144,0.1441,0.1502,0.1503,0.1503,0.1499,0.1498,0.1496,0.1495,0.1502,0.1503,0.1504,0,0,0,0,0,0,0,0,0,0,0,0,0,0.1391,0.1343,0.1439,0.1446,0.1448,0.1502,0.1503,0.1504,0.1499,0.1497,0.1496,0.1495,0.1502,0.1503,0.1504,0.1541,0,0,0.1509,0.151,0,0,0,0,0,0,0,0,0.1388,0.1395,0.1445,0.1446,0.1448,0.1491,0.147,0.1513,0.1499,0.1479,0.1496,0.1494,0.1495,0.1497,0.1512,0.1541,0.1541,0.1509,0.151,0.1511,0.1511,0,0,0,0,0,0,0,0.1385,0.1392,0.1464,0.1446,0.1447,0.1455,0.146,0.1479,0.1492,0.1481,0.1481,0.1489,0.1495,0.151,0.1512,0.1541,0.1509,0.1511,0.1511,0.1512,0.1608,0.161,0,0,0,0,0,0,0.1379,0.1389,0.1462,0.1466,0.1415,0.1458,0.1464,0.1478,0.1493,0.1495,0.149,0.1488,0.1508,0.151,0.1512,0.1561,0.1511,0.1512,0.1513,0.1606,0.1608,0.161,0,0,0,0,0,0,0.1377,0.1385,0.1459,0.1428,0.1438,0.1461,0.1477,0.148,0.1491,0.1501,0.1501,0.1496,0.1507,0.151,0.1542,0.1561,0.1513,0.1514,0.1605,0.1607,0.1609,0.1656,0,0,0,0,0,0,0.1374,0.1384,0.1397,0.1429,0.144,0.1491,0.1479,0.1482,0.1499,0.1497,0.1507,0.1507,0.1506,0.154,0.1544,0.1562,0.1515,0.1602,0.1606,0.1609,0.1652,0.1659,0.1666,0,0,0,0,0,0.137,0.1391,0.1398,0.1407,0.1456,0.1492,0.1499,0.1509,0.15,0.1512,0.1528,0.1506,0.1562,0.1544,0.1547,0.1566,0.1601,0.1605,0.1608,0.1649,0.1658,0.1665,0,0,0,0,0,0,0.1345,0.1394,0.1401,0.1433,0.146,0.1491,0.1505,0.1512,0.1536,0.1529,0.1534,0.1536,0.1566,0.1568,0.1547,0.1604,0.1575,0.158,0.1605,0.1613,0.162,0.1607,0.1517,0,0,0,0,0,0.135,0.1385,0.1419,0.1445,0.1457,0.1482,0.1498,0.1504,0.1527,0.1536,0.1547,0.1563,0.1588,0.1601,0.1615,0.1655,0.1667,0.1669,0.1675,0.1681,0.1675,0.1727,0.1738,0.1622,0.1622,0.1622,0,0,0.1347,0.1379,0.1397,0.1443,0.1463,0.1499,0.1488,0.151,0.1542,0.1533,0.1576,0.1582,0.1602,0.1642,0.1656,0.1646,0.1725,0.1686,0.169,0.1681,0.1732,0.1743,0.1753,0.1625,0.1624,0.1624,0,0,0.1365,0.1385,0.1423,0.1451,0.1486,0.1505,0.1511,0.1543,0.1556,0.1602,0.1602,0.1628,0.1665,0.1688,0.1705,0.1762,0.1754,0.1759,0.1791,0.1842,0.1852,0.186,0.1908,0.192,0.177,0.177,0.177,0,0.1355,0.1412,0.1436,0.1478,0.1504,0.151,0.1548,0.1572,0.1612,0.1633,0.1617,0.1683,0.1692,0.1752,0.1767,0.1776,0.1799,0.1757,0.185,0.1859,0.1867,0.1913,0.1926,0.1773,0.1772,0.1772,0.1772,0,0.1416,0.145,0.1469,0.1532,0.1562,0.1589,0.1625,0.1652,0.1663,0.1687,0.1734,0.1753,0.1796,0.1799,0.1799,0.1861,0.1857,0.1847,0.1826,0.1881,0.1927,0.194,0.1776,0.1775,0.1775,0.1774,0,0,0.1402,0.1494,0.1496,0.1533,0.1589,0.1618,0.1673,0.1726,0.1764,0.1787,0.1844,0.1873,0.187,0.1887,0.189,0.1919,0.1998,0.1903,0.1905,0.1944,0.2112,0.2081,0.2092,0.2003,0.2005,0.2006,0.2128,0,0.1432,0.1521,0.1558,0.1624,0.167,0.1697,0.1748,0.1795,0.183,0.1886,0.1901,0.1949,0.1911,0.1934,0.196,0.1992,0.203,0.1966,0.2057,0.206,0.2021,0.2105,0.1948,0.204,0.214,0.2142,0.2144,0,0.1476,0.1532,0.1611,0.1681,0.1699,0.1737,0.1814,0.1859,0.1932,0.1965,0.201,0.2025,0.2087,0.2037,0.2122,0.2082,0.2098,0.2107,0.2112,0.207,0.2052,0.1999,0.2059,0.2165,0.2163,0.2161,0.216,0,0.1475,0.1558,0.1622,0.1651,0.1738,0.1769,0.1804,0.1878,0.1933,0.2018,0.2074,0.2129,0.2181,0.2206,0.2227,0.2189,0.2307,0.2271,0.2256,0.2255,0.2131,0.2114,0.2324,0.2324,0.2324,0.2324,0.2323,0,0.1501,0.1548,0.1623,0.1662,0.1716,0.1772,0.1843,0.1886,0.1981,0.2041,0.2107,0.2164,0.2222,0.2288,0.2282,0.2323,0.2369,0.2277,0.2291,0.2145,0.2129,0.2232,0.2219,0.2328,0.2327,0.2326,0.2325,0,0.1501,0.1556,0.162,0.1698,0.1722,0.1754,0.1857,0.1907,0.2004,0.2093,0.2129,0.2239,0.2316,0.237,0.2433,0.241,0.244,0.2433,0.2258,0.2247,0.2338,0.2326,0.2446,0.2446,0.2446,0.2446,0.2447,0,0.1521,0.1557,0.1626,0.165,0.1682,0.1753,0.1795,0.1899,0.1959,0.211,0.2141,0.2269,0.232,0.2438,0.2438,0.2476,0.2467,0.2332,0.2221,0.2353,0.2354,0.2342,0.2331,0.2087,0.2084,0.2082,0.208,0,0.1535,0.1546,0.159,0.1638,0.1674,0.1736,0.1803,0.1857,0.1968,0.2049,0.213,0.2191,0.2316,0.2289,0.2364,0.2341,0.2316,0.2284,0.2498,0.2073,0.2022,0.202,0.202,0.2059,0.2061,0.2063,0.2064,0.2065,0.1524,0.1538,0.1579,0.1607,0.1656,0.1692,0.1705,0.1788,0.186,0.1935,0.2034,0.207,0.2137,0.2165,0.2125,0.2106,0.2239,0.2132,0.2136,0.2144,0.2073,0.2024,0.2048,0.205,0.2052,0.2053,0.2055,0,0.149,0.1513,0.155,0.1579,0.1592,0.1642,0.169,0.1682,0.1703,0.1806,0.1866,0.1778,0.1808,0.1862,0.1816,0.184,0.1788,0.1754,0.1666,0.1691,0.1713,0.1614,0.1471,0.1469,0.1466,0.1464,0,0,0.1475,0.1489,0.1499,0.1498,0.1521,0.1502,0.1499,0.1497,0.1545,0.1547,0.1568,0.1734,0.1827,0.1618,0.1618,0.1531,0.1584,0.1477,0.1957,0.1879,0.1897,0.1959,0.1842,0,0,0,0,0]},{"header":{"parameterUnit":"m.s-1","parameterCategory":2,"la1":30.2991,"la2":30.254,"lo1":-89.0895,"lo2":-89.0444,"dy":0.0017,"dx":0.0017,"nx":28,"ny":28,"refTime":"2025-01-31T09:00:00:Z","depth":"2","parameterNumber":3,"parameterNumberName":"V-component_of_CURRENTS"},"data":[0,0,0,0,0,0,0,0,0,0,0,0,0,0,0,0,0,0,0,0,0,0,0,0,0,0,0,0,0,0,0,0,0,0,0,0,0,0,0,0,0,0,0,0,0,0,0,0,0,0,0,0,0,0,0,0,0,0,-0.0029,-0.003,0,-0.0082,-0.0082,-0.0083,-0.0183,-0.0185,-0.0188,-0.019,-0.0338,-0.034,-0.0342,0,0,0,0,0,0,0,0,0,0,0,0,0,0.0081,0.0079,-0.0029,-0.003,-0.0031,-0.0082,-0.0082,-0.0083,-0.0183,-0.0185,-0.0188,-0.0191,-0.0338,-0.034,-0.0342,0,0,0,0,0,0,0,0,0,0,0,0,0,0.0034,0.0078,-0.0029,-0.0089,-0.0095,-0.0082,-0.0082,-0.0083,-0.0182,-0.0186,-0.0189,-0.0192,-0.0337,-0.034,-0.0342,-0.0293,0,0,-0.0351,-0.0352,0,0,0,0,0,0,0,0,0.0037,0.003,-0.0079,-0.0085,-0.0092,-0.0132,-0.0098,-0.0159,-0.0181,-0.0146,-0.019,-0.0194,-0.0278,-0.0285,-0.0282,-0.03,-0.0306,-0.0351,-0.0353,-0.0354,-0.0355,0,0,0,0,0,0,0,0.004,0.0032,-0.0047,-0.008,-0.0088,-0.0081,-0.0092,-0.0109,-0.0192,-0.0149,-0.0158,-0.0167,-0.0282,-0.0279,-0.0287,-0.0308,-0.0351,-0.0354,-0.0355,-0.0356,-0.0419,-0.0419,0,0,0,0,0,0,0.0039,0.0035,-0.0045,-0.0049,-0.0038,-0.0081,-0.0093,-0.0113,-0.019,-0.0205,-0.0164,-0.0172,-0.0273,-0.0283,-0.0293,-0.0339,-0.0354,-0.0357,-0.0358,-0.0419,-0.0419,-0.0419,0,0,0,0,0,0,0.0041,0.0032,-0.0043,-0.001,-0.0019,-0.008,-0.0102,-0.0113,-0.0135,-0.0201,-0.0218,-0.0179,-0.0276,-0.0289,-0.0348,-0.0343,-0.0358,-0.0361,-0.0419,-0.0419,-0.0419,-0.0368,0,0,0,0,0,0,0.0045,0.0033,0.0008,-0.001,-0.0022,-0.0028,-0.0099,-0.0111,-0.0136,-0.0146,-0.0217,-0.0234,-0.0279,-0.0344,-0.0351,-0.0347,-0.0363,-0.0419,-0.0419,-0.0419,-0.037,-0.0366,-0.0363,0,0,0,0,0,0.0049,0.0035,0.0007,-0.0004,-0.0051,-0.0027,-0.003,-0.0083,-0.0133,-0.0119,-0.0205,-0.0233,-0.0349,-0.0346,-0.0355,-0.0351,-0.0419,-0.0419,-0.0419,-0.0371,-0.0367,-0.0364,0,0,0,0,0,0,0.0078,0.0023,-0.0009,-0.0039,-0.0032,-0.0045,-0.0049,-0.0079,-0.0128,-0.0171,-0.0233,-0.0253,-0.0302,-0.0329,-0.0325,-0.037,-0.0387,-0.0388,-0.0347,-0.0344,-0.0341,-0.0312,-0.0365,0,0,0,0,0,0.0073,0.0029,0.002,-0.0008,0.0004,-0.0021,-0.0027,-0.0063,-0.0103,-0.0129,-0.0174,-0.0242,-0.0296,-0.0327,-0.0368,-0.0384,-0.0402,-0.0388,-0.0385,-0.0382,-0.0365,-0.0412,-0.0411,-0.0419,-0.0419,-0.0419,0,0,0.0088,0.0035,0.002,-0.0007,-0.0011,0.0017,-0.0032,-0.0042,-0.0046,-0.0137,-0.0163,-0.0228,-0.03,-0.0336,-0.0358,-0.0366,-0.0384,-0.0382,-0.0379,-0.0363,-0.0411,-0.0411,-0.041,-0.0419,-0.0419,-0.0419,0,0,0.0116,0.005,0.0051,0.005,0.0025,0.0018,0.0019,0.001,-0.0018,-0.0045,-0.013,-0.0189,-0.0244,-0.0296,-0.0334,-0.0328,-0.0366,-0.0349,-0.031,-0.0356,-0.0355,-0.0355,-0.0353,-0.0353,-0.0348,-0.0347,-0.0347,0,0.0125,0.01,0.0066,0.0075,0.0061,0.0028,0.0054,0.0046,0.0006,-0.0019,-0.0053,-0.0177,-0.0218,-0.0294,-0.0292,-0.0317,-0.0345,-0.032,-0.0351,-0.0351,-0.0352,-0.035,-0.035,-0.0345,-0.0345,-0.0346,-0.0346,0,0.0187,0.0145,0.0154,0.0133,0.0141,0.0137,0.0133,0.0128,0.008,0.0052,-0.0028,-0.0107,-0.0186,-0.0203,-0.0243,-0.0281,-0.0298,-0.0341,-0.0357,-0.0348,-0.0346,-0.0348,-0.0341,-0.0342,-0.0343,-0.0344,0,0,0.0238,0.0198,0.019,0.018,0.0142,0.0168,0.0166,0.0162,0.0137,0.0088,0.0056,-0.0035,-0.0104,-0.0149,-0.0226,-0.025,-0.0254,-0.029,-0.0294,-0.0279,-0.0334,-0.0343,-0.0345,-0.0325,-0.0325,-0.0326,-0.0322,0,0.0281,0.0276,0.0252,0.0267,0.0273,0.0234,0.0244,0.0222,0.017,0.0147,0.005,-0.0013,-0.0081,-0.014,-0.018,-0.0247,-0.0261,-0.0249,-0.0352,-0.0353,-0.0357,-0.0349,-0.0335,-0.0333,-0.0324,-0.0324,-0.0325,0,0.0332,0.0311,0.0315,0.0287,0.0298,0.0309,0.0277,0.0276,0.0225,0.0184,0.0085,0.0011,-0.0055,-0.0102,-0.0216,-0.0219,-0.0258,-0.0295,-0.0298,-0.0323,-0.0366,-0.0347,-0.0337,-0.0328,-0.0328,-0.0327,-0.0327,0,0.0345,0.0343,0.0324,0.0315,0.0313,0.0313,0.0312,0.0267,0.0273,0.019,0.0188,0.0043,0.0008,-0.0104,-0.0185,-0.0212,-0.0274,-0.0327,-0.0366,-0.0366,-0.0378,-0.0379,-0.0374,-0.0374,-0.0374,-0.0374,-0.0374,0,0.0339,0.0334,0.0329,0.0323,0.0358,0.0327,0.0326,0.0318,0.0286,0.0315,0.0191,0.0183,0.0009,-0.0053,-0.0159,-0.0262,-0.0268,-0.0342,-0.0372,-0.0358,-0.0356,-0.038,-0.0381,-0.0373,-0.0373,-0.0373,-0.0373,0,0.034,0.0303,0.0333,0.0348,0.0352,0.0383,0.0396,0.0406,0.0356,0.0393,0.0387,0.0313,0.0212,0.0054,-0.0087,-0.0197,-0.0313,-0.0337,-0.0282,-0.0306,-0.0374,-0.0372,-0.0396,-0.0396,-0.0396,-0.0397,-0.0397,0,0.0339,0.0333,0.0387,0.0413,0.0418,0.0436,0.046,0.0445,0.0474,0.0483,0.0544,0.0459,0.0415,0.0187,-0.0038,-0.0241,-0.0269,-0.0336,-0.0387,-0.0353,-0.0379,-0.0377,-0.0375,-0.0368,-0.0368,-0.0368,-0.0368,0,0.0375,0.0382,0.041,0.0482,0.0522,0.058,0.0613,0.0664,0.0671,0.0698,0.0741,0.07,0.0491,0.0266,-0.0013,-0.0156,-0.0324,-0.0342,-0.0335,-0.037,-0.0329,-0.0354,-0.0353,-0.0368,-0.0368,-0.0368,-0.0368,-0.0368,0.0417,0.0467,0.0497,0.0578,0.0627,0.0715,0.0762,0.0812,0.0881,0.0939,0.0903,0.0844,0.0598,0.022,-0.0028,-0.0297,-0.0295,-0.039,-0.0389,-0.0389,-0.0392,-0.0355,-0.0396,-0.0396,-0.0396,-0.0396,-0.0396,0,0.0493,0.0528,0.0593,0.0681,0.0753,0.0769,0.0871,0.0914,0.1002,0.1047,0.1041,0.0816,0.0559,0.0278,-0.0116,-0.0349,-0.0379,-0.0422,-0.0408,-0.0407,-0.0406,-0.041,-0.0418,-0.0419,-0.042,-0.042,0,0,0.0529,0.0607,0.065,0.0774,0.0825,0.0924,0.0987,0.1057,0.1096,0.1118,0.1079,0.0994,0.0651,0.0371,0.004,-0.0184,-0.0241,-0.0233,-0.0193,-0.0136,-0.0132,-0.0367,-0.037,0,0,0,0,0]}],[{"header":{"parameterUnit":"m.s-1","parameterCategory":2,"la1":30.2991,"la2":30.254,"lo1":-89.0895,"lo2":-89.0444,"dy":0.0017,"dx":0.0017,"nx":28,"ny":28,"refTime":"2025-01-31T09:00:00:Z","depth":"4","parameterNumber":2,"parameterNumberName":"U-component_of_CURRENTS"},"data":[0,0,0,0,0,0,0,0,0,0,0,0,0,0,0,0,0,0,0,0,0,0,0,0,0,0,0,0,0,0,0,0,0,0,0,0,0,0,0,0,0,0,0,0,0,0,0,0,0,0,0,0,0,0,0,0,0,0,0.0788,0.0788,0,0.0826,0.0826,0.0827,0.0856,0.0856,0.0857,0.0857,0.0944,0.0946,0.0948,0,0,0,0,0,0,0,0,0,0,0,0,0,0.0704,0.0706,0.0787,0.0788,0.0789,0.0826,0.0827,0.0827,0.0856,0.0856,0.0857,0.0857,0.0944,0.0946,0.0948,0,0,0,0,0,0,0,0,0,0,0,0,0,0.074,0.0706,0.0787,0.0809,0.0811,0.0826,0.0827,0.0827,0.0856,0.0856,0.0857,0.0857,0.0943,0.0946,0.0949,0.0955,0,0,0.0958,0.0959,0,0,0,0,0,0,0,0,0.0738,0.0743,0.0805,0.0807,0.081,0.0838,0.0829,0.0873,0.0856,0.0837,0.0857,0.0858,0.0914,0.0919,0.0922,0.0959,0.0963,0.0958,0.096,0.0961,0.0962,0,0,0,0,0,0,0,0.0736,0.0741,0.0801,0.0805,0.0809,0.0804,0.081,0.0837,0.0872,0.0839,0.0841,0.0848,0.0915,0.0919,0.0925,0.0964,0.0958,0.096,0.0962,0.0963,0.1073,0.1074,0,0,0,0,0,0,0.0735,0.0739,0.08,0.0803,0.0776,0.0806,0.0812,0.0827,0.087,0.0878,0.0847,0.0849,0.0914,0.0921,0.0928,0.1001,0.0961,0.0964,0.0965,0.1071,0.1073,0.1074,0,0,0,0,0,0,0.0733,0.074,0.0799,0.0772,0.078,0.0807,0.0823,0.0828,0.0849,0.0876,0.0884,0.0866,0.0915,0.0924,0.0976,0.1002,0.0965,0.0968,0.107,0.1072,0.1073,0.1106,0,0,0,0,0,0,0.0731,0.074,0.0754,0.0773,0.0781,0.0821,0.0823,0.0828,0.0851,0.0854,0.0895,0.0902,0.0916,0.0971,0.0979,0.1005,0.097,0.1069,0.1071,0.1073,0.1104,0.1109,0.1113,0,0,0,0,0,0.0728,0.0739,0.0754,0.0762,0.0799,0.0821,0.0826,0.0845,0.0852,0.0865,0.0899,0.0902,0.099,0.0975,0.0983,0.1011,0.1068,0.107,0.1073,0.1102,0.1108,0.1113,0,0,0,0,0,0,0.0705,0.0744,0.0761,0.0783,0.0809,0.0827,0.084,0.0853,0.0887,0.0897,0.092,0.093,0.0982,0.0993,0.0976,0.1048,0.1028,0.1032,0.1047,0.1053,0.1058,0.1061,0.0972,0,0,0,0,0,0.0709,0.0733,0.0765,0.0784,0.0799,0.0823,0.0836,0.0853,0.0882,0.0897,0.0929,0.0963,0.0995,0.1021,0.1048,0.1093,0.1104,0.1115,0.112,0.1123,0.1132,0.1157,0.1165,0.1082,0.1082,0.1082,0,0,0.0702,0.0729,0.0741,0.0782,0.0803,0.0829,0.0833,0.086,0.0886,0.0902,0.0956,0.0981,0.1009,0.1058,0.1082,0.1075,0.1157,0.1127,0.113,0.1136,0.1161,0.1169,0.1176,0.1084,0.1084,0.1084,0,0,0.0702,0.0731,0.0753,0.0778,0.082,0.0838,0.085,0.0887,0.0911,0.0961,0.0979,0.1024,0.1076,0.1103,0.1121,0.1169,0.1177,0.1178,0.1213,0.1237,0.1244,0.125,0.1292,0.1302,0.1185,0.1185,0.1185,0,0.0694,0.0731,0.0761,0.0791,0.0812,0.0845,0.0871,0.0899,0.095,0.098,0.0986,0.1073,0.1096,0.1155,0.1175,0.118,0.12,0.1188,0.1243,0.1249,0.1255,0.1296,0.1306,0.1187,0.1187,0.1187,0.1187,0,0.071,0.0745,0.0759,0.0813,0.0839,0.0866,0.091,0.0949,0.0984,0.1018,0.1089,0.1125,0.118,0.1192,0.1202,0.1259,0.1264,0.1241,0.1227,0.1265,0.1306,0.1316,0.119,0.1189,0.1189,0.1188,0,0,0.0677,0.0756,0.0763,0.0795,0.0855,0.0877,0.0931,0.0989,0.1033,0.109,0.1148,0.1208,0.1236,0.1259,0.1278,0.1304,0.1367,0.1298,0.1298,0.1337,0.1441,0.1365,0.1368,0.1352,0.1354,0.1355,0.146,0,0.0683,0.074,0.0779,0.0832,0.0863,0.0913,0.0961,0.102,0.1075,0.1142,0.1192,0.1256,0.1259,0.1295,0.1324,0.1358,0.1392,0.1342,0.14,0.1403,0.1327,0.1376,0.136,0.1467,0.1469,0.1471,0.1472,0,0.0681,0.0727,0.0779,0.0855,0.0873,0.0911,0.0996,0.1045,0.114,0.1186,0.1259,0.1302,0.1381,0.1357,0.1447,0.1417,0.1438,0.1452,0.1456,0.1379,0.1344,0.1417,0.149,0.1488,0.1487,0.1486,0.1485,0,0.064,0.072,0.0765,0.0789,0.088,0.092,0.0973,0.1064,0.1119,0.1224,0.1279,0.1363,0.1426,0.146,0.1514,0.1487,0.1594,0.1555,0.1509,0.1505,0.1527,0.1519,0.1603,0.1603,0.1603,0.1603,0.1603,0,0.0622,0.0659,0.0754,0.0779,0.0834,0.0909,0.0982,0.1043,0.1148,0.123,0.1307,0.1381,0.1453,0.1526,0.1544,0.1572,0.1625,0.1531,0.1525,0.1541,0.1533,0.1535,0.1525,0.1607,0.1606,0.1605,0.1604,0,0.0568,0.0631,0.0687,0.0789,0.0816,0.086,0.0974,0.1037,0.1139,0.1248,0.129,0.1419,0.1519,0.1581,0.1655,0.1615,0.1639,0.163,0.1678,0.1671,0.1529,0.152,0.1588,0.1586,0.1585,0.1583,0.1582,0,0.0546,0.0571,0.0673,0.0717,0.0767,0.0845,0.0903,0.1012,0.109,0.1271,0.1325,0.146,0.1539,0.1594,0.1645,0.1681,0.1653,0.1653,0.1556,0.1539,0.1527,0.1521,0.1515,0.158,0.1579,0.1579,0.1579,0,0.0509,0.055,0.0601,0.0684,0.075,0.0816,0.0917,0.096,0.1115,0.1209,0.1339,0.1402,0.1513,0.1565,0.1606,0.162,0.1641,0.1636,0.1638,0.1546,0.1529,0.1518,0.1514,0.1573,0.1574,0.1574,0.1575,0,0.048,0.0502,0.0581,0.0653,0.0727,0.0793,0.084,0.0954,0.1029,0.1229,0.1272,0.1413,0.152,0.1537,0.1578,0.1585,0.1549,0.148,0.1489,0.1496,0.1411,0.1373,0.1379,0,0,0,0,0,0.0457,0.0493,0.0555,0.0632,0.0706,0.0755,0.0864,0.0926,0.1063,0.113,0.1201,0.1303,0.1381,0.1441,0.143,0.1522,0.1542,0.15,0.1464,0.1543,0.1549,0.1456,0,0,0,0,0,0,0.0447,0.0499,0.0538,0.0609,0.0661,0.0734,0.0801,0.0892,0.0938,0.1078,0.1126,0.1223,0.1309,0.138,0.1406,0.1423,0.1373,0.1576,0.1573,0.1539,0.1545,0.155,0.1456,0,0,0,0,0]},{"header":{"parameterUnit":"m.s-1","parameterCategory":2,"la1":30.2991,"la2":30.254,"lo1":-89.0895,"lo2":-89.0444,"dy":0.0017,"dx":0.0017,"nx":28,"ny":28,"refTime":"2025-01-31T09:00:00:Z","depth":"4","parameterNumber":3,"parameterNumberName":"V-component_of_CURRENTS"},"data":[0,0,0,0,0,0,0,0,0,0,0,0,0,0,0,0,0,0,0,0,0,0,0,0,0,0,0,0,0,0,0,0,0,0,0,0,0,0,0,0,0,0,0,0,0,0,0,0,0,0,0,0,0,0,0,0,0,0,0.0358,0.0358,0,0.0336,0.0336,0.0335,0.0323,0.0323,0.0323,0.0323,0.0303,0.0303,0.0302,0,0,0,0,0,0,0,0,0,0,0,0,0,0.0373,0.0373,0.0358,0.0358,0.0358,0.0336,0.0336,0.0335,0.0323,0.0323,0.0323,0.0323,0.0303,0.0303,0.0302,0,0,0,0,0,0,0,0,0,0,0,0,0,0.0361,0.0373,0.0358,0.0349,0.0348,0.0336,0.0336,0.0335,0.0323,0.0323,0.0323,0.0323,0.0303,0.0303,0.0302,0.03,0,0,0.03,0.03,0,0,0,0,0,0,0,0,0.0362,0.036,0.035,0.0349,0.0348,0.0332,0.0333,0.0323,0.0323,0.0333,0.0323,0.0323,0.0313,0.0311,0.0308,0.0299,0.0298,0.03,0.0299,0.0299,0.0299,0,0,0,0,0,0,0,0.0362,0.0361,0.035,0.035,0.0349,0.0339,0.0338,0.0331,0.0324,0.0332,0.0331,0.0328,0.0312,0.0309,0.0307,0.0298,0.03,0.0299,0.0299,0.0299,0.0288,0.0289,0,0,0,0,0,0,0.0365,0.0362,0.035,0.0349,0.0354,0.0339,0.0338,0.0338,0.0324,0.0322,0.0328,0.0328,0.031,0.0308,0.0307,0.0319,0.0299,0.0298,0.0298,0.0288,0.0288,0.0289,0,0,0,0,0,0,0.0366,0.0365,0.0351,0.0354,0.0352,0.0339,0.0339,0.0337,0.0339,0.0321,0.0319,0.0332,0.031,0.0308,0.0308,0.0317,0.0298,0.0297,0.0288,0.0288,0.0289,0.0333,0,0,0,0,0,0,0.0366,0.0365,0.0371,0.0355,0.0352,0.0351,0.0339,0.0337,0.0336,0.0336,0.0324,0.0321,0.0309,0.0309,0.0307,0.0316,0.0297,0.0288,0.0288,0.0288,0.0331,0.0335,0.0337,0,0,0,0,0,0.0367,0.0376,0.0372,0.037,0.0359,0.0351,0.0349,0.034,0.0337,0.034,0.0333,0.0322,0.0309,0.0309,0.0307,0.0315,0.0288,0.0288,0.0288,0.033,0.0334,0.0337,0,0,0,0,0,0,0.0384,0.0375,0.037,0.0376,0.0366,0.0349,0.0355,0.0345,0.0342,0.0345,0.0328,0.0325,0.0328,0.0314,0.0314,0.0312,0.0295,0.0295,0.0327,0.0331,0.0334,0.0338,0.0296,0,0,0,0,0,0.039,0.0398,0.0382,0.0388,0.0386,0.0372,0.0369,0.0362,0.0354,0.0352,0.0344,0.0334,0.0326,0.0324,0.0315,0.0317,0.0282,0.0318,0.0322,0.0324,0.0325,0.0285,0.0285,0.029,0.029,0.029,0,0,0.0399,0.0395,0.0399,0.0392,0.0387,0.0391,0.0371,0.0371,0.0376,0.0351,0.0361,0.0346,0.0329,0.033,0.033,0.0322,0.0302,0.0325,0.0328,0.0326,0.0286,0.0285,0.0285,0.029,0.029,0.029,0,0,0.0418,0.0417,0.0429,0.0426,0.0419,0.0411,0.0413,0.0401,0.0399,0.0401,0.0384,0.0374,0.0367,0.0352,0.0345,0.0358,0.032,0.0357,0.0378,0.034,0.0339,0.0338,0.028,0.0274,0.0359,0.0359,0.0359,0,0.0429,0.0441,0.0431,0.044,0.0443,0.0423,0.0436,0.043,0.042,0.0419,0.0412,0.039,0.0376,0.0369,0.0374,0.0366,0.0332,0.0368,0.0344,0.0342,0.0341,0.0282,0.0274,0.0361,0.0361,0.0361,0.0361,0,0.0455,0.0466,0.0474,0.0482,0.0483,0.0491,0.0481,0.0484,0.0478,0.0465,0.0459,0.0433,0.0417,0.0411,0.0399,0.0382,0.0357,0.0353,0.0336,0.0343,0.028,0.0271,0.0364,0.0364,0.0363,0.0363,0,0,0.0475,0.0491,0.0495,0.0507,0.0508,0.0511,0.0524,0.0523,0.053,0.0512,0.051,0.0491,0.0467,0.0456,0.0433,0.0401,0.0354,0.0377,0.0374,0.0322,0.0254,0.0226,0.0213,0.0349,0.0348,0.0347,0.021,0,0.05,0.0529,0.053,0.0559,0.0573,0.0565,0.058,0.0576,0.0565,0.0557,0.0521,0.0509,0.0487,0.0477,0.0444,0.0376,0.0335,0.039,0.0253,0.0248,0.0225,0.0204,0.0344,0.0203,0.0201,0.02,0.0199,0,0.0525,0.0542,0.0577,0.06,0.0607,0.0625,0.064,0.0647,0.0628,0.0617,0.0591,0.0555,0.0504,0.0487,0.037,0.0406,0.0336,0.028,0.0274,0.0228,0.0205,0.0197,0.0182,0.0183,0.0185,0.0186,0.0187,0,0.0542,0.0574,0.0607,0.0615,0.0637,0.0658,0.0673,0.067,0.0672,0.065,0.0633,0.0575,0.0528,0.0447,0.0328,0.0347,0.0186,0.0196,0.01,0.0096,0.0144,0.0146,0.0113,0.0113,0.0114,0.0114,0.0115,0,0.0561,0.0587,0.0623,0.0639,0.0678,0.069,0.0721,0.0722,0.0717,0.0707,0.0664,0.0624,0.0516,0.0411,0.0322,0.017,0.0174,0.0091,0.006,0.0163,0.017,0.0136,0.014,0.0109,0.011,0.0111,0.0112,0,0.0565,0.0591,0.0628,0.0671,0.0685,0.0715,0.0749,0.0761,0.0759,0.0738,0.0727,0.0637,0.0498,0.0375,0.0214,0.0145,0.0018,-0.0034,0.006,0.0038,-0.0046,-0.0038,-0.0154,-0.0156,-0.0158,-0.0159,-0.016,0,0.0565,0.0589,0.0646,0.0671,0.0694,0.0739,0.076,0.0778,0.078,0.0736,0.0713,0.0588,0.0511,0.0257,0.0139,-0.0051,-0.0065,-0.0133,-0.0063,-0.0054,-0.0073,-0.0062,-0.0052,-0.0163,-0.0164,-0.0164,-0.0164,0,0.0566,0.0595,0.0625,0.0674,0.071,0.0741,0.0773,0.0775,0.0778,0.0774,0.0685,0.0567,0.0399,0.0233,0.0075,-0.0049,-0.0085,-0.0151,-0.0148,-0.0082,-0.0067,-0.0082,-0.0069,-0.0171,-0.017,-0.0169,-0.0169,0,0.0566,0.0588,0.0632,0.0666,0.0709,0.0726,0.075,0.0745,0.0745,0.0709,0.067,0.0523,0.0439,0.023,0.0088,-0.0045,-0.006,-0.0076,-0.0077,-0.0071,0.0006,0.004,-0.0068,0,0,0,0,0,0.0563,0.0582,0.0616,0.0652,0.0691,0.0714,0.0742,0.0761,0.0764,0.0703,0.0694,0.0547,0.0332,0.0236,0.0097,0.0053,-0.0088,-0.0113,-0.0107,-0.0205,-0.0198,-0.0121,0,0,0,0,0,0,0.0564,0.06,0.0606,0.0625,0.0649,0.0684,0.0706,0.0713,0.0683,0.0675,0.0559,0.052,0.0306,0.0409,0.0096,0.0055,0.0043,-0.0208,-0.0211,-0.0209,-0.0202,-0.0197,-0.0116,0,0,0,0,0]}]]